Hourly Weather Roundup
Issued by NWS Central Illinois

Home | Current Version | Previous Version | Text Only | Print | Product List | Glossary On
Versions: 1 2 3 4 5 6 7 8 9 10 11 12 13 14 15 16 17 18 19 20 21 22 23 24 25 26 27 28 29 30 31 32 33 34 35 36 37 38 39 40 41 42 43 44 45 46 47 48 49 50
000
NZUS43 KILX 030310
HWRILX

AREA WEATHER ROUNDUP
NATIONAL WEATHER SERVICE, LINCOLN IL
1000 PM CDT THU JUL 02 2015


CITY           SKY/WX    TMP DP  RH WIND       PRES   REMARKS
BLOOMINGTON    MOCLDY    65  61  87 NE9       29.96R
CHAMPAIGN      MOCLDY    70  58  65 N10       29.92R
DANVILLE       PTCLDY    66  63  88 N7        29.91R
DECATUR        CLOUDY    68  61  78 NE8       29.92R
EFFINGHAM      CLOUDY    70  65  83 N3        29.91S
FLORA          CLOUDY    71  67  88 N6        29.89S
GALESBURG      CLOUDY    63  58  86 N7        29.96S
JACKSONVILLE   CLOUDY    67  64  90 NW3       29.93R
LACON          MOCLDY    63  56  80 CALM      29.96R
LAWRENCEVILLE  CLOUDY    71  69  93 N5        29.87R
LITCHFIELD     CLOUDY    66  62  85 N5        29.91S
$$


CITY           SKY/WX    TMP DP  RH WIND       PRES   REMARKS
LINCOLN        CLOUDY    68  61  77 NE8       29.94R
MACOMB         CLOUDY    64  60  87 N3        29.97R
MATTOON        MOCLDY    69  65  86 N6        29.90R
MT CARMEL AP   CLOUDY    73  70  88 N6        29.87S FOG
OLNEY-NOBLE AP CLOUDY    70  68  94 NW3       29.88S
PARIS          CLOUDY    70  65  83 NE5       29.91R
PEORIA         CLOUDY    69  58  67 NE6       29.95R
PONTIAC        MOCLDY    65  58  80 NE13      29.97R
RANTOUL        PTCLDY    68  62  81 N12       29.94R
ROBINSON       CLOUDY    70  69  95 CALM      29.88S
SPRINGFIELD    CLOUDY    69  62  78 N8        29.92R
TAYLORVILLE    CLOUDY    64  63  94 CALM      29.92R
$$

...REGIONAL REPORTS...


CITY           SKY/WX    TMP DP  RH WIND       PRES   REMARKS
CHICAGO O`HARE CLOUDY    58  49  72 N6        30.00R
KANKAKEE       MOCLDY    60  56  88 NE10      29.97R
MOLINE         MOCLDY    63  58  83 CALM      29.96S
MOUNT STERLING NOT AVBL
MOUNT VERNON   CLOUDY    72  64  78 CALM      29.89R
PITTSFIELD     CLOUDY    66  62  85 CALM      29.95R
QUINCY         CLOUDY    65  61  87 NE3       29.93S
ROCKFORD       CLOUDY    63  53  70 E5        30.00R
$$


CITY           SKY/WX    TMP DP  RH WIND       PRES   REMARKS
BURLINGTON     MOCLDY    66  59  78 NE7       29.95R
CEDAR RAPIDS   CLOUDY    63  54  72 E6        29.97S
DES MOINES     CLOUDY    67  54  63 E6        29.96F
KIRKSVILLE     CLOUDY    64  60  87 NE5       29.95S
OTTUMWA        CLOUDY    64  57  78 NE6       29.94S
ST LOUIS       MOCLDY    71  61  70 NE8       29.91S
$$


CITY           SKY/WX    TMP DP  RH WIND       PRES   REMARKS
TERRE HAUTE    CLOUDY    73  65  75 NE6       29.88R
EVANSVILLE     CLOUDY    75  70  84 N5        29.85F
INDIANAPOLIS   CLOUDY    72  62  71 NE12      29.89R
LAFAYETTE      CLOUDY    69  60  73 NE12      29.93R
MADISON        MOCLDY    59  47  64 CALM      30.01R
MILWAUKEE      MOCLDY    56  46  69 N3        30.02R
$$





USA.gov is the U.S. government's official web portal to all federal, state and local government web resources and services.